Location: Newark
(49.8969°N, 3.3422°E)
Time: 15:33:01
(UTC+00:00)

Envisat - Pass Details

Date: 13 December 2019
Orbit: 764 x 766 km, 98.1° (Epoch: 18 January)

Event Time Altitude Azimuth Distance (km) Brightness Sun altitude
Rises 19:06:17 0° 214° (SW) 3,224 6.7 -31.1°
Reaches altitude 10° 19:09:32 10° 237° (WSW) 2,304 6.1 -31.6°
Maximum altitude 19:12:31 16° 273° (W) 1,951 5.8 -32.1°
Drops below altitude 10° 19:15:30 10° 309° (NW) 2,314 6.0 -32.6°
Sets 19:18:49 0° 332° (NNW) 3,246 6.6 -33.1°
